User: anonymous   Login
Location: Arrodets-la-Barthe
(43.0306°N, 0.2829°E)
Time: 12:14:48
(UTC+00:00)
Language:

Lacrosse 4 Rocket - Orbit

View from above orbital plane
View from above orbital plane
View from above satellite
View from above satellite

Ground track
Ground track

The orbit data is extracted from the following two-line orbital elements,

1 26474U 00047B   22273.14024098  .00001776  00000-0  15949-3 0  9990
2 26474  67.9923 296.8676 0055325 354.3561   5.6951 14.97102546204193
Epoch (UTC): 30 September 2022 03:21:56
Eccentricity: 0.0055325
inclination: 67.9923°
perigee height: 537 km
apogee height: 614 km
right ascension of ascending node: 296.8676°
argument of perigee: 354.3561°
revolutions per day: 14.97102546
mean anomaly at epoch: 5.6951°
orbit number at epoch: 20419

The dashed part of the orbit path shows where the satellite is in the earth's shadow,  

DLR